Weather History for Frankfort, KY

Change the Weather History Date:

Thursday, June 6, 2013

  Actual Average Record
Temperature  
Mean Temperature 73 °F 70 °F  
Max Temperature 80 °F 81 °F 97 °F (1933)
Min Temperature 65 °F 59 °F 42 °F (1990)
Degree Days  
Heating Degree Days 0 1  
Month to date heating degree days 2 6  
Since 1 June heating degree days 2 6  
Since 1 July heating degree days 4781 4696  
Cooling Degree Days 8 6  
Month to date cooling degree days 30 32  
Year to date cooling degree days 149 131  
Since 1 June cooling degree days 30 32  
Growing Degree Days 23 (Base 50)    
Moisture  
Dew Point 65 °F    
Average Humidity 80    
Maximum Humidity 100    
Minimum Humidity 60    
Precipitation  
Precipitation 0.25 in 0.16 in 1.25 in (2002)
Month to date precipitation 0.52 1.03  
Year to date precipitation 19.19 20.50  
Sea Level Pressure  
Sea Level Pressure 29.80 in    
Wind  
Wind Speed 5 mph (SSW)    
Max Wind Speed 14 mph    
Max Gust Speed 18 mph    
Visibility 8 miles    
Events Rain    
T = Trace of Precipitation, MM = Missing Value Source: NWS Daily Summary

Daily Weather History Graph

Daily Weather History Graph

Search for Another Location

Airport:

Trip Planner

Search our weather history database for the weather conditions in past years. The results will help you decide how hot, cold, wet, or windy it might be!

Date:

Astronomy

Jun. 06, 2013 Rise Set
Actual Time 6:16 AM EDT 9:00 PM EDT
Civil Twilight 5:45 AM EDT 9:31 PM EDT
Nautical Twilight 5:06 AM EDT 10:10 PM EDT
Astronomical Twilight 4:22 AM EDT 10:54 PM EDT
Moon 4:56 AM EDT (6/6) 7:22 PM EDT (6/6)
Length of Visible Light 15h 46m
Length of Day
14h 43m
Waning Crescent, 4% of the Moon is Illuminated
Jun 6
Waning Crescent
Jun 8
New
Jun 16
First Quarter
Jun 23
Full
Jun 30
Last Quarter

Hourly Weather History & Observations

Time (EDT) Temp. Heat Index Dew Point Humidity Pressure Visibility Wind Dir Wind Speed Gust Speed Precip Events Conditions
12:53 AM 68.0 °F - 66.0 °F 93% 29.86 in 8.0 mi SE 5.8 mph - N/A   Mostly Cloudy
1:53 AM 68.0 °F - 66.0 °F 93% 29.83 in 9.0 mi SSE 4.6 mph - N/A   Overcast
2:53 AM 66.9 °F - 64.9 °F 93% 29.82 in 10.0 mi South 3.5 mph - N/A   Clear
3:53 AM 66.9 °F - 64.9 °F 93% 29.81 in 10.0 mi SSE 3.5 mph - N/A   Partly Cloudy
4:53 AM 66.9 °F - 64.9 °F 93% 29.80 in 10.0 mi South 5.8 mph - N/A   Scattered Clouds
5:53 AM 66.0 °F - 64.0 °F 93% 29.80 in 10.0 mi South 4.6 mph - N/A   Scattered Clouds
6:07 AM 66.2 °F - 64.4 °F 94% 29.82 in 10.0 mi South 6.9 mph - N/A   Mostly Cloudy
6:21 AM 66.2 °F - 64.4 °F 94% 29.82 in 10.0 mi South 4.6 mph - N/A   Mostly Cloudy
6:53 AM 66.0 °F - 64.9 °F 96% 29.80 in 10.0 mi South 6.9 mph - N/A   Overcast
7:10 AM 66.2 °F - 64.4 °F 94% 29.81 in 8.0 mi South 5.8 mph - 0.00 in Rain Light Rain
7:53 AM 66.9 °F - 64.9 °F 93% 29.79 in 8.0 mi South 4.6 mph - 0.01 in Rain Light Rain
8:19 AM 66.2 °F - 64.4 °F 94% 29.81 in 7.0 mi South 4.6 mph - 0.01 in Rain Light Rain
8:53 AM 66.9 °F - 66.0 °F 97% 29.79 in 7.0 mi South 6.9 mph - 0.02 in Rain Light Rain
9:11 AM 66.2 °F - 66.2 °F 100% 29.81 in 5.0 mi South 5.8 mph - 0.01 in Rain Light Rain
9:50 AM 66.2 °F - 66.2 °F 100% 29.81 in 2.5 mi SSW 4.6 mph - 0.08 in Rain Rain
9:53 AM 66.9 °F - 66.0 °F 97% 29.80 in 2.5 mi SSW 5.8 mph - 0.09 in Rain Rain
10:11 AM 66.2 °F - 66.2 °F 100% 29.82 in 1.8 mi SW 5.8 mph - 0.07 in Rain Rain
10:15 AM 66.2 °F - 66.2 °F 100% 29.82 in 2.0 mi SW 4.6 mph - 0.08 in Rain Rain
10:18 AM 66.2 °F - 66.2 °F 100% 29.82 in 2.0 mi SW 5.8 mph - 0.09 in Rain Rain
10:41 AM 66.2 °F - 66.2 °F 100% 29.82 in 3.0 mi SW 6.9 mph - 0.13 in Rain Light Rain
10:53 AM 68.0 °F - 66.9 °F 96% 29.80 in 7.0 mi SW 5.8 mph - 0.13 in Rain Light Rain
11:53 AM 69.1 °F - 66.9 °F 93% 29.79 in 10.0 mi WSW 5.8 mph - 0.00 in   Overcast
12:17 PM 69.8 °F - 66.2 °F 88% 29.82 in 10.0 mi WSW 8.1 mph - N/A   Overcast
12:43 PM 73.4 °F - 69.8 °F 88% 29.81 in 10.0 mi Variable 3.5 mph - N/A   Overcast
12:53 PM 73.9 °F - 69.1 °F 85% 29.78 in 10.0 mi Variable 5.8 mph - N/A   Mostly Cloudy
1:53 PM 75.0 °F - 66.9 °F 76% 29.78 in 10.0 mi WSW 6.9 mph - N/A   Overcast
2:53 PM 75.9 °F - 66.0 °F 71% 29.77 in 10.0 mi SW 11.5 mph - N/A   Mostly Cloudy
3:53 PM 78.1 °F - 64.9 °F 64% 29.76 in 10.0 mi West 8.1 mph - N/A   Mostly Cloudy
4:53 PM 80.1 °F 82.1 °F 66.0 °F 62% 29.76 in 9.0 mi West 3.5 mph - N/A   Mostly Cloudy
5:53 PM 77.0 °F - 66.0 °F 69% 29.76 in 10.0 mi Variable 3.5 mph - N/A   Overcast
6:53 PM 77.0 °F - 62.1 °F 60% 29.75 in 10.0 mi NNW 6.9 mph - N/A   Partly Cloudy
7:53 PM 75.9 °F - 63.0 °F 64% 29.76 in 10.0 mi NNW 3.5 mph - N/A   Partly Cloudy
8:53 PM 72.0 °F - 64.9 °F 78% 29.77 in 10.0 mi NNE 3.5 mph - N/A   Clear
9:53 PM 70.0 °F - 64.0 °F 81% 29.78 in 9.0 mi Calm Calm - N/A   Clear
10:53 PM 69.1 °F - 64.0 °F 84% 29.79 in 9.0 mi North 3.5 mph - N/A   Clear
11:53 PM 66.9 °F - 64.0 °F 90% 29.79 in 8.0 mi North 4.6 mph - N/A   Clear